Satellite-Ground Cal/Val Region Overpasses Predictions

Prediction of Satellite NPP Overpassing Cal/Val Region: PacNW

Region Location: (Latitude: 10.00, Longitude: 139.50) to (Latitude: 22.70, Longitude: 165.60).

Table of predicted overpasses for the next 14.0 days since TLE Epoch: 3/16/2017
Interval Starting Time Starting Location Ending Time Ending Location
1 03/17/2017 02:14:32 ( 12.90, 165.60) 03/17/2017 02:17:19 ( 22.70, 163.24)
2 03/17/2017 03:55:13 ( 10.02, 140.89) 03/17/2017 03:56:54 ( 15.96, 139.51)
3 03/17/2017 14:45:36 ( 22.66, 163.49) 03/17/2017 14:49:11 ( 10.04, 160.49)
4 03/18/2017 03:36:11 ( 10.04, 145.64) 03/18/2017 03:39:46 ( 22.66, 142.64)
5 03/18/2017 14:29:42 ( 11.56, 165.60) 03/18/2017 14:30:08 ( 10.03, 165.25)
6 03/18/2017 16:08:03 ( 22.64, 142.87) 03/18/2017 16:11:38 ( 10.02, 139.87)
7 03/19/2017 03:17:08 ( 10.05, 150.40) 03/19/2017 03:20:43 ( 22.67, 147.40)
8 03/19/2017 15:49:00 ( 22.69, 147.65) 03/19/2017 15:52:36 ( 10.01, 144.63)
9 03/20/2017 02:58:05 ( 10.00, 155.17) 03/20/2017 03:01:41 ( 22.69, 152.16)
10 03/20/2017 15:29:57 ( 22.68, 152.41) 03/20/2017 15:33:32 ( 10.06, 149.40)
11 03/21/2017 02:39:02 ( 10.02, 159.93) 03/21/2017 02:42:38 ( 22.70, 156.91)
12 03/21/2017 15:10:55 ( 22.66, 157.16) 03/21/2017 15:14:30 ( 10.04, 154.16)
13 03/22/2017 02:20:00 ( 10.03, 164.69) 03/22/2017 02:23:35 ( 22.65, 161.69)
14 03/22/2017 14:51:52 ( 22.65, 161.92) 03/22/2017 14:55:27 ( 10.03, 158.92)
15 03/23/2017 03:42:27 ( 10.05, 144.07) 03/23/2017 03:46:02 ( 22.68, 141.07)
16 03/23/2017 14:34:05 ( 18.24, 165.60) 03/23/2017 14:36:25 ( 10.02, 163.68)
17 03/23/2017 16:14:19 ( 22.69, 141.32) 03/23/2017 16:16:26 ( 15.24, 139.51)
18 03/24/2017 03:23:24 ( 10.01, 148.84) 03/24/2017 03:27:00 ( 22.69, 145.82)
19 03/24/2017 15:55:16 ( 22.67, 146.07) 03/24/2017 15:58:51 ( 10.05, 143.07)
20 03/25/2017 03:04:21 ( 10.02, 153.60) 03/25/2017 03:07:56 ( 22.65, 150.60)
21 03/25/2017 15:36:14 ( 22.66, 150.83) 03/25/2017 15:39:49 ( 10.04, 147.83)
22 03/26/2017 02:45:19 ( 10.04, 158.36) 03/26/2017 02:48:54 ( 22.66, 155.35)
23
